CW7804 Weather Reports


Display with metric or nautical units.
time (UTC)temp
F
wind
direction
speed
MPH
gust
MPH
rain 1hr
in
rain 24hr
in
rain mn
in
humidity
%
barometer
mb
20211127013057 39 360 0.0 0.0 0.00 0.02 0.02 41 1017.1
20211127011504 38 360 0.0 2.0 0.00 0.02 0.02 40 1017.0
20211127004632 41 360 0.0 0.0 0.00 0.02 0.02 39 1016.9
20211127001604 43 360 0.0 2.0 0.00 0.02 0.02 36 1016.7
20211127000132 43 360 0.0 3.0 0.00 0.02 0.02 34 1016.4
20211126233047 44 360 1.0 5.0 0.00 0.02 0.02 37 1016.1
20211126224610 46 360 1.0 3.0 0.00 0.02 0.02 34 1015.5
20211126221607 48 360 0.0 0.0 0.00 0.02 0.02 33 1015.4
20211126214631 50 360 1.0 6.0 0.00 0.02 0.02 32 1015.2
20211126213018 50 360 1.0 8.0 0.00 0.02 0.02 34 1015.0
20211126211851 51 360 2.0 5.0 0.00 0.02 0.02 34 1015.0
20211126204606 52 360 1.0 3.0 0.00 0.02 0.02 32 1015.0
20211126203002 52 360 2.0 4.0 0.00 0.02 0.02 32 1015.1
20211126201641 53 360 2.0 6.0 0.00 0.02 0.02 32 1015.0
20211126200127 53 360 3.0 5.0 0.00 0.02 0.02 31 1014.8
20211126193125 53 360 2.0 5.0 0.00 0.02 0.02 29 1014.9
20211126191534 53 360 2.0 9.0 0.00 0.02 0.02 28 1015.0
20211126184628 54 360 2.0 6.0 0.00 0.02 0.02 32 1015.0
20211126183007 54 360 3.0 11.0 0.00 0.02 0.02 33 1014.6
20211126180109 54 360 2.0 10.0 0.00 0.02 0.02 35 1014.8
20211126174505 54 360 1.0 8.0 0.00 0.02 0.02 32 1015.2
20211126173103 54 360 2.0 11.0 0.00 0.02 0.02 36 1015.3
20211126171527 53 360 2.0 10.0 0.00 0.02 0.02 33 1015.2
20211126164649 53 360 2.0 11.0 0.00 0.02 0.02 35 1014.1
20211126163028 52 360 3.0 12.0 0.00 0.02 0.02 34 1014.1
20211126160149 52 360 5.0 11.0 0.00 0.02 0.02 36 1014.4
20211126154523 51 360 4.0 9.0 0.00 0.02 0.02 42 1014.5
20211126151638 51 360 4.0 8.0 0.00 0.02 0.02 45 1014.4
20211126150052 51 360 1.0 9.0 0.00 0.02 0.02 47 1013.9
20211126143248 50 360 2.0 6.0 0.00 0.02 0.02 51 1014.0
20211126134606 50 360 3.0 13.0 0.00 0.02 0.02 59 1013.3
20211126133005 49 360 0.0 1.0 0.00 0.02 0.02 62 1012.9
20211126131825 49 360 0.0 4.0 0.00 0.02 0.02 61 1013.1
20211126130317 49 360 1.0 4.0 0.00 0.02 0.02 61 1012.8
20211126124509 49 360 2.0 6.0 0.00 0.02 0.02 61 1012.5
20211126123146 48 360 2.0 5.0 0.00 0.02 0.02 64 1012.2
20211126121524 49 360 1.0 4.0 0.00 0.02 0.02 65 1012.1
20211126120009 48 360 2.0 9.0 0.00 0.02 0.02 67 1011.8
20211126114718 46 360 2.0 9.0 0.00 0.02 0.02 76 1011.7
20211126113105 45 360 1.0 2.0 0.00 0.02 0.02 83 1011.3
20211126110322 45 360 0.0 0.0 0.00 0.02 0.02 86 1011.4
20211126104506 45 360 0.0 0.0 0.00 0.02 0.02 88 1011.3
20211126101528 46 360 0.0 0.0 0.00 0.02 0.02 87 1011.4
20211126094614 47 360 0.0 0.0 0.00 0.02 0.02 88 1011.2
20211126091633 47 360 0.0 0.0 0.00 0.02 0.02 88 1010.8
20211126090004 48 360 0.0 0.0 0.00 0.02 0.02 89 1010.8
20211126084658 47 360 0.0 0.0 0.00 0.02 0.02 89 1010.8
20211126083107 48 360 0.0 0.0 0.00 0.02 0.02 88 1010.9
20211126080045 48 360 0.0 0.0 0.01 0.02 0.02 87 1011.5
20211126073204 48 360 0.0 0.0 0.01 0.02 0.02 86 1012.1
20211126071520 48 360 0.0 0.0 0.02 0.02 0.02 85 1012.4
20211126070107 49 360 0.0 0.0 0.01 0.01 0.01 84 1011.9
20211126064523 49 360 0.0 0.0 0.01 0.01 0.01 83 1012.1
20211126061559 50 360 0.0 0.0 0.00 0.00 0.00 79 1011.8
20211126054639 51 360 0.0 0.0 0.00 0.00 0.00 73 1012.3
20211126051720 52 360 0.0 0.0 0.00 0.00 0.00 72 1012.8
20211126050018 53 360 1.0 2.0 0.00 0.00 0.00 68 1013.0
20211126044525 53 360 1.0 3.0 0.00 0.00 0.00 66 1013.0
20211126041652 54 360 1.0 3.0 0.00 0.00 0.00 61 1013.3
20211126033049 53 360 1.0 2.0 0.00 0.00 0.00 60 1013.5
20211126030139 51 360 0.0 0.0 0.00 0.00 0.00 60 1013.8
20211126024614 50 360 0.0 0.0 0.00 0.00 0.00 60 1014.0
20211126021607 50 360 0.0 0.0 0.00 0.00 0.00 58 1014.3